Weather observations for the past three days for
Poughkeepsie, Dutchess County Airport
Imperial (Metric)
Date Time (edt) Wind (mph) Vis. (mi.) Weather Sky Cond. Temperature (ºF) Relative Humidity Wind Chill (°F) Heat Index (°F) Pressure Precipitation (in)
Air Dwpt 6 hour altimeter (in) sea level (mb) 1 hr 3 hr 6 hr
Max. Min.
23 18:53 Calm 10.00 A Few Clouds FEW075 75 70 84% 75 30.06 1017.6
23 17:53 Calm 10.00 Overcast FEW038 OVC047 75.9 69.1 79% 77 30.05 1017.3
23 16:53 Calm 10.00 Overcast FEW011 OVC036 75 70 84% 75 30.05 1017.1 0.02
23 15:53 S 3 6.00 Fog/Mist BKN044 OVC060 73 70 90% 30.05 1017.3
23 14:53 Calm 10.00 Overcast OVC035 73 69.1 87% 30.05 1017.2 0.02
23 13:53 NW 3 3.00 Light Rain Fog/Mist BKN008 BKN019 OVC036 72 69.1 73.9 70 91% 30.05 1017.1 0.08
23 12:53 Calm 10.00 Overcast FEW006 BKN026 OVC036 73.9 69.1 85% 30.04 1016.9
23 11:53 N 3 5.00 Fog/Mist FEW006 BKN026 OVC036 72 69.1 91% 30.04 1016.7 0.05
23 10:53 N 6 2.00 Light Rain Fog/Mist FEW006 OVC024 71.1 68 90% 30.04 1016.8 0.03 0.03
23 09:53 N 5 5.00 Fog/Mist OVC035 71.1 68 90% 30.02 1016.3
23 08:53 N 5 10.00 Overcast FEW012 BKN029 OVC036 71.1 68 90% 30.01 1015.8
23 07:53 Calm 10.00 Overcast FEW026 OVC037 70 68 73 69.1 93% 30 1015.4 0.07
23 06:53 Calm 10.00 Overcast OVC037 70 66.9 90% 29.98 1014.8
23 05:53 Calm 10.00 Overcast OVC039 69.1 66.9 93% 29.97 1014.6
23 04:53 Calm 10.00 Overcast OVC047 69.1 66.9 93% 29.97 1014.4 0.04 0.07
23 03:53 SE 6 3.00 Rain Fog/Mist BKN042 OVC050 69.1 66 90% 29.98 1014.9 0.03
23 02:53 Calm 10.00 Overcast OVC065 71.1 66 84% 29.97 1014.5
23 01:53 SE 8 10.00 Overcast FEW019 FEW050 OVC080 73 66.9 73.9 72 81% 29.97 1014.6
23 00:53 Calm 10.00 Overcast OVC100 73 70 90% 29.97 1014.5
22 23:53 Calm 10.00 A Few Clouds FEW110 73 69.1 87% 29.98 1014.7
22 22:53 Calm 10.00 A Few Clouds FEW019 73 70 90% 30.01 1015.7
22 21:53 Calm 10.00 A Few Clouds FEW026 73 70 90% 30.02 1016.1
22 20:53 Calm 10.00 A Few Clouds FEW029 73.9 70 88% 30.01 1015.8
22 19:53 Calm 10.00 Fair CLR 75.9 71.1 82.9 75 85% 76 30.01 1015.7 0.02
22 18:53 Calm 10.00 Fair CLR 77 70 79% 79 30 1015.3
22 17:53 Calm 10.00 A Few Clouds FEW050 FEW090 75 71.1 88% 75 30.01 1015.8 0.02
22 16:53 S 5 7.00 Light Rain SCT055 BKN080 BKN095 77 68 74% 79 30.03 1016.4
22 15:53 S 6 G 17 10.00 Mostly Cloudy FEW035 SCT047 BKN095 81 64.9 58% 83 30.02 1016.1
22 14:53 SE 5 10.00 Mostly Cloudy BKN034 BKN043 BKN060 82.9 70 65% 87 30.01 1015.9
22 13:53 W 5 10.00 A Few Clouds FEW035 82.9 68 82.9 69.1 61% 86 30.03 1016.5
22 12:53 SE 6 10.00 A Few Clouds FEW075 82 66.9 60% 85 30.05 1017.3
22 11:53 SE 7 10.00 Fair CLR 82 66 58% 84 30.06 1017.5
22 10:53 E 5 10.00 A Few Clouds FEW070 80.1 66 62% 82 30.07 1018.0
22 09:53 Calm 10.00 Fair CLR 77 66 69% 79 30.07 1017.8
22 08:53 Calm 10.00 Fair CLR 73.9 64.9 74% 30.08 1018.1
22 06:53 Calm 10.00 Fair CLR 66 63 90% 30.08 1018.1
22 05:53 N 3 10.00 Fair CLR 64 62.1 93% 30.07 1017.8
22 04:53 Calm 10.00 Fair CLR 64 62.1 93% 30.06 1017.6
22 03:53 Calm 10.00 Fair CLR 64.9 63 93% 30.05 1017.3
22 02:53 Calm 10.00 Fair CLR 66 63 90% 30.06 1017.6
22 01:53 Calm 10.00 Fair CLR 66.9 64 80.1 66.9 91% 30.07 1017.8
22 00:53 SE 3 10.00 Fair CLR 66.9 64 91% 30.06 1017.6
21 23:53 Calm 10.00 Fair CLR 69.1 64.9 87% 30.06 1017.3
21 22:53 SE 5 10.00 Fair CLR 72 64 76% 30.05 1017.1
21 21:53 Calm 10.00 Fair CLR 71.1 64 79% 30.03 1016.6
21 20:53 Calm 10.00 Fair CLR 75 64.9 71% 77 30.01 1015.8
21 19:53 Calm 10.00 Fair CLR 80.1 64.9 86 80.1 60% 82 30 1015.4
21 18:53 W 3 10.00 Fair CLR 84.9 59 42% 85 29.99 1015.2
21 17:53 S 3 10.00 Fair CLR 84.9 59 42% 85 29.99 1015.2
21 16:53 W 5 10.00 Fair CLR 84.9 57.9 40% 84 29.99 1015.2
21 15:53 Calm 10.00 Fair CLR 84.9 59 42% 85 30 1015.5
21 14:53 Calm 10.00 Fair CLR 84.9 59 42% 85 30.01 1015.7
21 13:53 Vrbl 5 10.00 Fair CLR 84 59 84.9 73 43% 84 30.01 1015.9
21 12:53 Vrbl 3 10.00 Fair CLR 82.9 59 44% 83 30.02 1016.1
21 11:53 N 6 10.00 Fair CLR 82 63 53% 83 30.02 1016.1
21 10:53 N 7 10.00 Fair CLR 80.1 62.1 54% 81 30.02 1016.3
21 09:53 NE 7 10.00 Fair CLR 79 61 54% 80 30.03 1016.4
21 08:53 Calm 10.00 Partly Cloudy SCT009 75.9 68 77% 77 30.03 1016.6
21 07:53 Calm 10.00 A Few Clouds FEW008 73 68 73 68 84% 30.03 1016.5
21 06:53 Calm 9.00 A Few Clouds FEW070 70 66.9 90% 30.02 1016.2
21 05:53 N 3 9.00 Partly Cloudy SCT019 68 66 93% 30.01 1015.7
21 04:53 Calm 10.00 A Few Clouds FEW025 70 66 87% 29.99 1015.3
21 03:53 Calm 10.00 Partly Cloudy SCT039 SCT085 73 66 79% 29.99 1015.3
21 02:53 S 5 10.00 Overcast BKN041 BKN048 OVC055 73 66.9 81% 30 1015.6
21 01:53 Calm 10.00 Overcast OVC048 72 68 81 72 87% 30.01 1015.7
21 00:53 Calm 10.00 Overcast FEW039 BKN047 OVC070 73 68 84% 30.02 1016.0
20 23:53 Calm 10.00 A Few Clouds FEW110 72 68 87% 30.02 1016.1
20 22:53 Vrbl 3 10.00 Overcast BKN070 OVC100 73.9 66.9 79% 30.03 1016.4
20 21:53 SW 8 10.00 Overcast BKN070 OVC100 75 66.9 76% 76 30.04 1016.7
20 20:53 SW 12 G 23 10.00 Overcast BKN065 OVC080 75.9 64.9 69% 78 30.03 1016.6
20 19:53 SW 6 10.00 Mostly Cloudy BKN055 BKN070 81 63 86 75.9 54% 82 30.01 1015.7
Date Time (edt) Wind (mph) Vis. (mi.) Weather Sky Cond. Air Dwpt Max. Min. Relative Humidity Wind Chill (°F) Heat Index (°F) altimeter (in) sea level (mb) 1 hr 3 hr 6 hr
6 hour
Temperature (ºF) Pressure Precipitation (in)